Showing default

DJIBOUTI-1B, 62402

Orbit data source: Space-Track

DJIBOUTI-1B, 62402 is a Djibouti payload satellite in LEO that was launched on Sat, 21 Dec 2024 UTC via an FALCON 9 launch vehicle from the Air Force Western Test Range (AFWTR). Payload-class satellites include a variety of spacecraft equipped with specific instruments for various scientific and technological missions. These include communications satellites like Starlink; space stations such as the ISS; scientific satellites like the Hubble; Earth observation satellites from companies like Planet Labs, Umbra, and HawkEye 360; GPS; miniature CubeSats for education and research; and military/defense satellites.

Loading next visibility...
Identifier
62402, 2024-247AB
Orbit
LEO
Last TLE update
15 hours ago
Origin
Manufacturer
Montpellier
Mission
Operational Civil Technology
Bus & Motor
CUBESAT 1U, Unknown motor
Mass
1 kg wet, 1 kg dry
Launch date (UTC)
2024-12-21 (5 months ago)
Launch vehicle
FALCON 9
Launch site
Air Force Western Test Range (AFWTR)
Object type
Payload
Rocket body
Debris
Shape & HBR
Box, 0.1 m
Radar Cross Section
0.015 m², Small (<0.1 m²)

Expand to show TLE details & history

TLE from 15 hours ago
0 DJIBOUTI-1B
1 62402U 24247AB  25128.96838288  .00020223  00000-0  74844-3 0  9992
2 62402  44.9786 329.7491 0005621 267.7653  92.2586 15.27401416 21252
Epoch: 2025-05-08T23:14Z
Definitive object data (Epoch: 2025-05-08T23:14:28.28Z)
Latitude
-0.00004°
Longitude
114.09996°
Altitude
483.734 km
Speed
7.625 km/s
True Right ascension
21h 58m 59s
True Declination
0° 00' 00"
Sunlit
Object was in daylight at TLE epoch
Visualization TLE readout
Latitude
-28.92372°
Longitude
-35.9742°
Altitude
488.779 km
Speed
7.623 km/s
Apparent Right ascension
11h 19m 10s
Apparent Declination
-34° 32' 12"
Sunlit
Object is in full shadow
Visualization observer readout
Local Sidereal Time
22:30:30
Azimuth
295.255° NW
Elevation
-78.935°
Doppler factor
1
Orbital elements
Apogee altitude
489.054 km
Perigee altitude
481.339 km
Semi-major axis
6,863.334 km
Eccentricity
0.0005621
Inclination
44.9786°
RAAN
329.7491°
Arg. of periapsis
267.7653°
True anomaly
92.32296°
Mean anomaly
92.2586°
Eccentric anomaly
92.29078°
Mean motion
3.81716 °/min
BSTAR
0.00074844
Orbital period
94.31 mins
Loading maneuver chart data...
Loading SW <> Apogee altitude chart data...
Loading historical data...
Loading historical data...
Loading historical data...
Loading historical data...
Loading historical data...
Loading historical data...
Loading historical data...

DJIBOUTI-1B Visibility forecast

Observer location: undefined°, undefined°

Span
Click to sort rows by Start time (UTC) header in descending order
Start Az.
Max El. time (UTC)
Max El. Az.
Max El.
End time (UTC)
End Az.
7 mins2025-05-09 16:42:22.896Z228.334° WSW2025-05-09 16:46:22.896Z120.418° SE38.024°2025-05-09 16:49:22.896Z73.18° E
6 mins2025-05-09 18:22:22.896Z280.58° WNW2025-05-09 18:24:22.896Z324.724° NNW34.325°2025-05-09 18:28:22.896Z62.088° ENE
5 mins2025-05-09 20:02:22.896Z313.642° NW2025-05-09 20:04:22.896Z19.127° NNE31.792°2025-05-09 20:07:22.896Z75.701° E
5 mins2025-05-09 21:41:22.896Z292.51° NW2025-05-09 21:43:22.896Z126.591° SE44.308°2025-05-09 21:46:22.896Z115.892° SE
|